,,,PA_Meas_PMT16A,,PR_Meas_QMR101_102,,RH_Meas_QMH101,,SR_Meas_QMS101,,TA_Meas_QMH101,,GenWind,,GenWind,
date,time,status,PA,status,PR,status,RH,status,SR,status,TA,status,DirAvg,status,SpdAvg,
2009-07-02, 00:00:04,VALID,1005.94,VALID,0,VALID,95.2084,VALID,0,VALID,23.332,VALID,18,VALID,0,
2009-07-02, 00:01:04,VALID,1005.91,VALID,0,VALID,95.2161,VALID,0,VALID,23.3532,VALID,18,VALID,0,
2009-07-02, 00:02:04,VALID,1005.88,VALID,0,VALID,95.2161,VALID,0,VALID,23.3727,VALID,18,VALID,0,
2009-07-02, 00:03:04,VALID,1005.85,VALID,0,VALID,95.2389,VALID,0,VALID,23.3514,VALID,18,VALID,0,
2009-07-02, 00:04:04,VALID,1005.84,VALID,0,VALID,95.2237,VALID,0,VALID,23.332,VALID,18,VALID,0,
2009-07-02, 00:05:04,VALID,1005.81,VALID,0,VALID,95.2161,VALID,0,VALID,23.2948,VALID,18,VALID,0,
2009-07-02, 00:06:04,VALID,1005.74,VALID,0,VALID,95.2161,VALID,0,VALID,23.2931,VALID,18,VALID,0,
2009-07-02, 00:07:04,VALID,1005.71,VALID,0,VALID,95.2008,VALID,0,VALID,23.332,VALID,18,VALID,0,
2009-07-02, 00:08:04,VALID,1005.7,VALID,0,VALID,95.2313,VALID,0,VALID,23.3514,VALID,18,VALID,0,
2009-07-02, 00:09:04,VALID,1005.66,VALID,0,VALID,95.2771,VALID,0,VALID,23.3904,VALID,18,VALID,0,
2009-07-02, 00:10:04,VALID,1005.61,VALID,0,VALID,95.2466,VALID,0,VALID,23.3709,VALID,18,VALID,0,
2009-07-02, 00:11:04,VALID,1005.61,VALID,0,VALID,95.2466,VALID,0,VALID,23.3727,VALID,18,VALID,0,
2009-07-02, 00:12:04,VALID,1005.56,VALID,0,VALID,95.2389,VALID,0,VALID,23.3532,VALID,18,VALID,0,
2009-07-02, 00:13:04,VALID,1005.58,VALID,0,VALID,95.2313,VALID,0,VALID,23.3514,VALID,18,VALID,0,
2009-07-02, 00:14:04,VALID,1005.54,VALID,0,VALID,95.2389,VALID,0,VALID,23.3532,VALID,18,VALID,0,
2009-07-02, 00:15:04,VALID,1005.54,VALID,0,VALID,95.2466,VALID,0,VALID,23.2948,VALID,18,VALID,0,
2009-07-02, 00:16:04,VALID,1005.51,VALID,0,VALID,95.2084,VALID,0,VALID,23.2559,VALID,18,VALID,0,
2009-07-02, 00:17:04,VALID,1005.48,VALID,0,VALID,95.2237,VALID,0,VALID,23.217,VALID,18,VALID,0,
2009-07-02, 00:18:04,VALID,1005.44,VALID,0,VALID,95.2008,VALID,0,VALID,23.2152,VALID,18,VALID,0,
2009-07-02, 00:19:04,VALID,1005.39,VALID,0,VALID,95.2161,VALID,0,VALID,23.2736,VALID,18,VALID,0,
2009-07-02, 00:20:04,VALID,1005.38,VALID,0,VALID,95.2313,VALID,0,VALID,23.3337,VALID,18,VALID,0,
2009-07-02, 00:21:04,VALID,1005.34,VALID,0,VALID,95.2542,VALID,0,VALID,23.3337,VALID,18,VALID,0,
2009-07-02, 00:22:04,VALID,1005.31,VALID,0,VALID,95.2542,VALID,0,VALID,23.3125,VALID,18,VALID,0,
2009-07-02, 00:23:04,VALID,1005.29,VALID,0,VALID,95.2542,VALID,0,VALID,23.3532,VALID,18,VALID,0,
2009-07-02, 00:24:04,VALID,1005.27,VALID,0,VALID,95.2542,VALID,0,VALID,23.3143,VALID,18,VALID,0,
2009-07-02, 00:25:04,VALID,1005.24,VALID,0,VALID,95.2618,VALID,0,VALID,23.2948,VALID,18,VALID,0,
2009-07-02, 00:26:04,VALID,1005.22,VALID,0,VALID,95.2466,VALID,0,VALID,23.2754,VALID,18,VALID,0,
2009-07-02, 00:27:04,VALID,1005.22,VALID,0,VALID,95.2389,VALID,0,VALID,23.2152,VALID,18,VALID,0,
2009-07-02, 00:28:04,VALID,1005.22,VALID,0,VALID,95.2313,VALID,0,VALID,23.1763,VALID,18,VALID,0,
2009-07-02, 00:29:04,VALID,1005.21,VALID,0,VALID,95.2237,VALID,0,VALID,23.1374,VALID,18,VALID,0,
2009-07-02, 00:30:04,VALID,1005.21,VALID,0,VALID,95.2237,VALID,0,VALID,23.1391,VALID,18,VALID,0,
2009-07-02, 00:31:04,VALID,1005.2,VALID,0,VALID,95.2084,VALID,0,VALID,23.1002,VALID,18,VALID,0,
2009-07-02, 00:32:04,VALID,1005.2,VALID,0,VALID,95.1779,VALID,0,VALID,23.0595,VALID,18,VALID,0,
2009-07-02, 00:33:04,VALID,1005.22,VALID,0,VALID,95.2084,VALID,0,VALID,23.0807,VALID,18,VALID,0,
2009-07-02, 00:34:04,VALID,1005.18,VALID,0,VALID,95.1855,VALID,0,VALID,23.0807,VALID,18,VALID,0,
2009-07-02, 00:35:04,VALID,1005.19,VALID,0,VALID,95.2008,VALID,0,VALID,23.0807,VALID,18,VALID,0,
2009-07-02, 00:36:04,VALID,1005.2,VALID,0,VALID,95.2084,VALID,0.100563,VALID,23.1002,VALID,18,VALID,0,
2009-07-02, 00:37:04,VALID,1005.13,VALID,0,VALID,95.2313,VALID,0,VALID,23.079,VALID,18,VALID,0,
2009-07-02, 00:38:04,VALID,1005.11,VALID,0,VALID,95.2389,VALID,0,VALID,23.1374,VALID,18,VALID,0,
2009-07-02, 00:39:04,VALID,1005.12,VALID,0,VALID,95.2313,VALID,0,VALID,23.217,VALID,18,VALID,0,
2009-07-02, 00:40:04,VALID,1005.12,VALID,0,VALID,95.2389,VALID,0,VALID,23.1957,VALID,18,VALID,0,
2009-07-02, 00:41:04,VALID,1005.09,VALID,0,VALID,95.2466,VALID,0,VALID,23.2364,VALID,18,VALID,0,
2009-07-02, 00:42:04,VALID,1005.08,VALID,0,VALID,95.2389,VALID,0,VALID,23.2541,VALID,18,VALID,0,
2009-07-02, 00:43:04,VALID,1005.05,VALID,0,VALID,95.2695,VALID,0,VALID,23.2754,VALID,18,VALID,0,
2009-07-02, 00:44:04,VALID,1005.05,VALID,0,VALID,95.2695,VALID,0,VALID,23.2754,VALID,18,VALID,0,
2009-07-02, 00:45:04,VALID,1005.04,VALID,0,VALID,95.2695,VALID,0,VALID,23.2559,VALID,18,VALID,0,
2009-07-02, 00:46:04,VALID,1005.02,VALID,0,VALID,95.2695,VALID,0,VALID,23.2347,VALID,18,VALID,0,
2009-07-02, 00:47:04,VALID,1005.02,VALID,0,VALID,95.2695,VALID,0,VALID,23.3143,VALID,18,VALID,0,
2009-07-02, 00:48:04,VALID,1005,VALID,0,VALID,95.2695,VALID,0,VALID,23.3532,VALID,18,VALID,0,
2009-07-02, 00:49:04,VALID,1005.03,VALID,0,VALID,95.2771,VALID,0,VALID,23.3514,VALID,18,VALID,0,
2009-07-02, 00:50:04,VALID,1005.01,VALID,0,VALID,95.2847,VALID,0,VALID,23.3727,VALID,18,VALID,0,
2009-07-02, 00:51:04,VALID,1005.04,VALID,0,VALID,95.3,VALID,0,VALID,23.332,VALID,18,VALID,0,
2009-07-02, 00:52:04,VALID,1005.05,VALID,0,VALID,95.3,VALID,0,VALID,23.3125,VALID,18,VALID,0,
2009-07-02, 00:53:04,VALID,1005.05,VALID,0,VALID,95.2847,VALID,0,VALID,23.2754,VALID,18,VALID,0,
2009-07-02, 00:54:04,VALID,1005.05,VALID,0,VALID,95.2847,VALID,0,VALID,23.2364,VALID,18,VALID,0,
2009-07-02, 00:55:04,VALID,1005.04,VALID,0,VALID,95.2695,VALID,0,VALID,23.2152,VALID,18,VALID,0,
2009-07-02, 00:56:04,VALID,1005.05,VALID,0,VALID,95.2695,VALID,0,VALID,23.2152,VALID,18,VALID,0,
2009-07-02, 00:57:04,VALID,1005.01,VALID,0,VALID,95.2923,VALID,0,VALID,23.2948,VALID,18,VALID,0,
2009-07-02, 00:58:04,VALID,1005,VALID,0,VALID,95.2771,VALID,0,VALID,23.217,VALID,18,VALID,0,
2009-07-02, 00:59:04,VALID,1005.01,VALID,0,VALID,95.2695,VALID,0,VALID,23.178,VALID,18,VALID,0,
2009-07-02, 01:00:04,VALID,1004.95,VALID,0,VALID,95.2618,VALID,0,VALID,23.1586,VALID,18,VALID,0,
2009-07-02, 01:01:04,VALID,1004.92,VALID,0,VALID,95.2695,VALID,0,VALID,23.0984,VALID,18,VALID,0,
2009-07-02, 01:02:04,VALID,1004.87,VALID,0,VALID,95.2466,VALID,0,VALID,23.1586,VALID,18,VALID,0,
2009-07-02, 01:03:04,VALID,1004.85,VALID,0,VALID,95.2695,VALID,0,VALID,23.1586,VALID,18,VALID,0,
2009-07-02, 01:04:04,VALID,1004.84,VALID,0,VALID,95.2771,VALID,0,VALID,23.2364,VALID,18,VALID,0,
2009-07-02, 01:05:04,VALID,1004.79,VALID,0,VALID,95.3076,VALID,0,VALID,23.2948,VALID,18,VALID,0,
2009-07-02, 01:06:04,VALID,1004.77,VALID,0,VALID,95.3152,VALID,0,VALID,23.3143,VALID,18,VALID,0,
2009-07-02, 01:07:04,VALID,1004.75,VALID,0,VALID,95.3152,VALID,0,VALID,23.3337,VALID,18,VALID,0,
2009-07-02, 01:08:04,VALID,1004.73,VALID,0,VALID,95.3229,VALID,0,VALID,23.3921,VALID,18,VALID,0,
2009-07-02, 01:09:04,VALID,1004.7,VALID,0,VALID,95.3229,VALID,0,VALID,23.3532,VALID,18,VALID,0,
2009-07-02, 01:10:04,VALID,1004.68,VALID,0,VALID,95.3229,VALID,0,VALID,23.3337,VALID,18,VALID,0,
2009-07-02, 01:11:04,VALID,1004.63,VALID,0,VALID,95.3305,VALID,0,VALID,23.3921,VALID,18,VALID,0,
2009-07-02, 01:12:04,VALID,1004.62,VALID,0,VALID,95.3534,VALID,0,VALID,23.4487,VALID,18,VALID,0,
2009-07-02, 01:13:04,VALID,1004.61,VALID,0,VALID,95.3457,VALID,0,VALID,23.5284,VALID,18,VALID,0,
2009-07-02, 01:14:04,VALID,1004.59,VALID,0,VALID,95.3305,VALID,0,VALID,23.3904,VALID,18,VALID,0,
2009-07-02, 01:15:04,VALID,1004.56,VALID,0,VALID,95.3457,VALID,0,VALID,23.3904,VALID,18,VALID,0,
2009-07-02, 01:16:04,VALID,1004.55,VALID,0,VALID,95.3381,VALID,0,VALID,23.332,VALID,17,VALID,0,
2009-07-02, 01:17:04,VALID,1004.49,VALID,0,VALID,95.3152,VALID,0,VALID,23.2948,VALID,17,VALID,0,
2009-07-02, 01:18:04,VALID,1004.49,VALID,0,VALID,95.3381,VALID,0,VALID,23.2559,VALID,17,VALID,0,
2009-07-02, 01:19:04,VALID,1004.47,VALID,0,VALID,95.3152,VALID,0,VALID,23.2364,VALID,17,VALID,0,
2009-07-02, 01:20:04,VALID,1004.46,VALID,0,VALID,95.3305,VALID,0,VALID,23.2347,VALID,17,VALID,0,
2009-07-02, 01:21:04,VALID,1004.45,VALID,0,VALID,95.3152,VALID,0,VALID,23.2347,VALID,17,VALID,0,
2009-07-02, 01:22:04,VALID,1004.44,VALID,0,VALID,95.3152,VALID,0,VALID,23.2559,VALID,17,VALID,0,
2009-07-02, 01:23:04,VALID,1004.44,VALID,0,VALID,95.3305,VALID,0,VALID,23.2347,VALID,17,VALID,0,
2009-07-02, 01:24:04,VALID,1004.43,VALID,0,VALID,95.3229,VALID,0,VALID,23.2152,VALID,17,VALID,0,
2009-07-02, 01:25:04,VALID,1004.4,VALID,0,VALID,95.3229,VALID,0,VALID,23.217,VALID,17,VALID,0,
2009-07-02, 01:26:04,VALID,1004.39,VALID,0,VALID,95.3381,VALID,0,VALID,23.2754,VALID,17,VALID,0,
2009-07-02, 01:27:04,VALID,1004.43,VALID,0,VALID,95.3381,VALID,0,VALID,23.2754,VALID,17,VALID,0,
2009-07-02, 01:28:04,VALID,1004.4,VALID,0,VALID,95.3534,VALID,0,VALID,23.2754,VALID,17,VALID,0,
2009-07-02, 01:29:04,VALID,1004.39,VALID,0,VALID,95.361,VALID,0,VALID,23.2541,VALID,17,VALID,0,
2009-07-02, 01:30:04,VALID,1004.4,VALID,0,VALID,95.3381,VALID,0,VALID,23.217,VALID,17,VALID,0,
2009-07-02, 01:31:04,VALID,1004.37,VALID,0,VALID,95.3305,VALID,0,VALID,23.1957,VALID,17,VALID,0,
2009-07-02, 01:32:04,VALID,1004.34,VALID,0,VALID,95.3305,VALID,0,VALID,23.1763,VALID,17,VALID,0,
2009-07-02, 01:33:04,VALID,1004.36,VALID,0,VALID,95.3457,VALID,0,VALID,23.178,VALID,17,VALID,0,
2009-07-02, 01:34:04,VALID,1004.35,VALID,0,VALID,95.3534,VALID,0,VALID,23.1568,VALID,17,VALID,0,
2009-07-02, 01:35:04,VALID,1004.31,VALID,0,VALID,95.3381,VALID,0,VALID,23.1586,VALID,17,VALID,0,
2009-07-02, 01:36:04,VALID,1004.31,VALID,0,VALID,95.3152,VALID,0.100563,VALID,23.1179,VALID,17,VALID,0,
2009-07-02, 01:37:04,VALID,1004.31,VALID,0,VALID,95.3229,VALID,0,VALID,23.0984,VALID,17,VALID,0,
2009-07-02, 01:38:04,VALID,1004.3,VALID,0,VALID,95.3229,VALID,0,VALID,23.1002,VALID,17,VALID,0,
2009-07-02, 01:39:04,VALID,1004.27,VALID,0,VALID,95.3381,VALID,0,VALID,23.1391,VALID,17,VALID,0,
2009-07-02, 01:40:04,VALID,1004.28,VALID,0,VALID,95.3381,VALID,0.100563,VALID,23.1568,VALID,17,VALID,0,
2009-07-02, 01:41:04,VALID,1004.27,VALID,0,VALID,95.3457,VALID,0,VALID,23.2364,VALID,17,VALID,0,
2009-07-02, 01:42:04,VALID,1004.29,VALID,0,VALID,95.361,VALID,0.100563,VALID,23.1763,VALID,17,VALID,0,
2009-07-02, 01:43:04,VALID,1004.27,VALID,0,VALID,95.3457,VALID,0,VALID,23.1374,VALID,17,VALID,0,
2009-07-02, 01:44:04,VALID,1004.28,VALID,0,VALID,95.3381,VALID,0,VALID,23.1374,VALID,17,VALID,0,
2009-07-02, 01:45:04,VALID,1004.3,VALID,0,VALID,95.361,VALID,0,VALID,23.1179,VALID,17,VALID,0,
2009-07-02, 01:46:04,VALID,1004.3,VALID,0,VALID,95.361,VALID,0,VALID,23.1179,VALID,17,VALID,0,
2009-07-02, 01:47:04,VALID,1004.33,VALID,0,VALID,95.3534,VALID,0,VALID,23.0595,VALID,17,VALID,0,
2009-07-02, 01:48:04,VALID,1004.34,VALID,0,VALID,95.3381,VALID,0,VALID,23.0206,VALID,17,VALID,0,
2009-07-02, 01:49:04,VALID,1004.36,VALID,0,VALID,95.3457,VALID,0,VALID,22.9605,VALID,17,VALID,0,
2009-07-02, 01:50:04,VALID,1004.41,VALID,0,VALID,95.3305,VALID,0,VALID,22.9622,VALID,17,VALID,0,
2009-07-02, 01:51:04,VALID,1004.42,VALID,0,VALID,95.3457,VALID,0,VALID,22.9817,VALID,17,VALID,0,
2009-07-02, 01:52:04,VALID,1004.45,VALID,0,VALID,95.3381,VALID,0,VALID,23.0401,VALID,17,VALID,0,
2009-07-02, 01:53:04,VALID,1004.47,VALID,0,VALID,95.3534,VALID,0,VALID,23.0401,VALID,17,VALID,0,
2009-07-02, 01:54:04,VALID,1004.51,VALID,0,VALID,95.3991,VALID,0,VALID,23.2152,VALID,17,VALID,0,
2009-07-02, 01:55:04,VALID,1004.5,VALID,0,VALID,95.3915,VALID,0.100563,VALID,23.1957,VALID,17,VALID,0,
2009-07-02, 01:56:04,VALID,1004.55,VALID,0,VALID,95.3839,VALID,0,VALID,23.1179,VALID,17,VALID,0,
2009-07-02, 01:57:04,VALID,1004.55,VALID,0,VALID,95.422,VALID,0,VALID,23.1975,VALID,17,VALID,0,
2009-07-02, 01:58:04,VALID,1004.52,VALID,0,VALID,95.3991,VALID,0,VALID,23.1763,VALID,17,VALID,0,
2009-07-02, 01:59:04,VALID,1004.49,VALID,0,VALID,95.3991,VALID,0,VALID,23.178,VALID,17,VALID,0,
2009-07-02, 02:00:04,VALID,1004.46,VALID,0,VALID,95.3839,VALID,0,VALID,23.217,VALID,17,VALID,0,
2009-07-02, 02:01:04,VALID,1004.45,VALID,0,VALID,95.3991,VALID,0,VALID,23.2541,VALID,17,VALID,0,
2009-07-02, 02:02:04,VALID,1004.43,VALID,0,VALID,95.4068,VALID,0,VALID,23.3921,VALID,17,VALID,0,
2009-07-02, 02:03:04,VALID,1004.43,VALID,0,VALID,95.422,VALID,0,VALID,23.4505,VALID,17,VALID,0,
2009-07-02, 02:04:04,VALID,1004.42,VALID,0,VALID,95.4144,VALID,0,VALID,23.5071,VALID,17,VALID,0,
2009-07-02, 02:05:04,VALID,1004.39,VALID,0,VALID,95.422,VALID,0,VALID,23.4682,VALID,17,VALID,0,
2009-07-02, 02:06:04,VALID,1004.41,VALID,0,VALID,95.4144,VALID,0,VALID,23.4877,VALID,17,VALID,0,
2009-07-02, 02:07:04,VALID,1004.38,VALID,0,VALID,95.3991,VALID,0,VALID,23.47,VALID,17,VALID,0,
2009-07-02, 02:08:04,VALID,1004.38,VALID,0,VALID,95.4144,VALID,0,VALID,23.4098,VALID,17,VALID,0,
2009-07-02, 02:09:04,VALID,1004.35,VALID,0,VALID,95.422,VALID,0,VALID,23.3904,VALID,17,VALID,0,
2009-07-02, 02:10:04,VALID,1004.37,VALID,0,VALID,95.4068,VALID,0,VALID,23.3337,VALID,17,VALID,0,
2009-07-02, 02:11:04,VALID,1004.33,VALID,0,VALID,95.3915,VALID,0,VALID,23.2364,VALID,17,VALID,0,
2009-07-02, 02:12:04,VALID,1004.36,VALID,0,VALID,95.3915,VALID,0,VALID,23.2736,VALID,17,VALID,0,
2009-07-02, 02:13:04,VALID,1004.37,VALID,0,VALID,95.3991,VALID,0,VALID,23.2754,VALID,17,VALID,0,
2009-07-02, 02:14:04,VALID,1004.35,VALID,0,VALID,95.4068,VALID,0,VALID,23.2152,VALID,17,VALID,0,
2009-07-02, 02:15:04,VALID,1004.36,VALID,0,VALID,95.3991,VALID,0,VALID,23.1957,VALID,17,VALID,0,
2009-07-02, 02:16:04,VALID,1004.33,VALID,0,VALID,95.4068,VALID,0,VALID,23.217,VALID,17,VALID,0,
2009-07-02, 02:17:04,VALID,1004.36,VALID,0,VALID,95.4297,VALID,0,VALID,23.2541,VALID,17,VALID,0,
2009-07-02, 02:18:04,VALID,1004.35,VALID,0,VALID,95.4297,VALID,0,VALID,23.3125,VALID,16,VALID,0,
2009-07-02, 02:19:04,VALID,1004.35,VALID,0,VALID,95.4526,VALID,0,VALID,23.3337,VALID,16,VALID,0,
2009-07-02, 02:20:04,VALID,1004.38,VALID,0,VALID,95.4297,VALID,0,VALID,23.3904,VALID,16,VALID,0,
2009-07-02, 02:21:04,VALID,1004.38,VALID,0,VALID,95.4449,VALID,0,VALID,23.4487,VALID,16,VALID,0,
2009-07-02, 02:22:04,VALID,1004.36,VALID,0,VALID,95.4602,VALID,0,VALID,23.5089,VALID,16,VALID,0,
2009-07-02, 02:23:04,VALID,1004.36,VALID,0,VALID,95.4449,VALID,0,VALID,23.5089,VALID,16,VALID,0.44375,
2009-07-02, 02:24:04,VALID,1004.35,VALID,0,VALID,95.4602,VALID,0,VALID,23.5673,VALID,16,VALID,0.292969,
2009-07-02, 02:25:04,VALID,1004.31,VALID,0,VALID,95.4678,VALID,0,VALID,23.5655,VALID,16,VALID,0.15625,
2009-07-02, 02:26:04,VALID,1004.3,VALID,0,VALID,95.4526,VALID,0,VALID,23.5673,VALID,16,VALID,0.203516,
2009-07-02, 02:27:04,VALID,1004.3,VALID,0,VALID,95.4449,VALID,0,VALID,23.5868,VALID,16,VALID,0.00585938,
2009-07-02, 02:28:04,VALID,1004.28,VALID,0,VALID,95.4449,VALID,0,VALID,23.585,VALID,16,VALID,0.00195313,
2009-07-02, 02:29:04,VALID,1004.25,VALID,0,VALID,95.4449,VALID,0,VALID,23.5673,VALID,16,VALID,0.101953,
2009-07-02, 02:30:04,VALID,1004.28,VALID,0,VALID,95.4449,VALID,0,VALID,23.6452,VALID,15,VALID,0.150391,
2009-07-02, 02:31:04,VALID,1004.31,VALID,0,VALID,95.4297,VALID,0,VALID,23.6452,VALID,15,VALID,0,
2009-07-02, 02:32:04,VALID,1004.36,VALID,0,VALID,95.4449,VALID,0,VALID,23.6434,VALID,15,VALID,0.528516,
2009-07-02, 02:33:04,VALID,1004.36,VALID,0,VALID,95.4373,VALID,0,VALID,23.5655,VALID,15,VALID,0.483594,
2009-07-02, 02:34:04,VALID,1004.4,VALID,0,VALID,95.4602,VALID,0,VALID,23.546,VALID,329,VALID,0.592969,
2009-07-02, 02:35:04,VALID,1004.41,VALID,0,VALID,95.422,VALID,0,VALID,23.6257,VALID,328,VALID,0.527344,
2009-07-02, 02:36:04,VALID,1004.43,VALID,0,VALID,95.4449,VALID,0,VALID,23.5478,VALID,357,VALID,0.730859,
2009-07-02, 02:37:04,VALID,1004.44,VALID,0,VALID,95.4449,VALID,0,VALID,23.5071,VALID,357,VALID,0.292188,
2009-07-02, 02:38:04,VALID,1004.45,VALID,0,VALID,95.4297,VALID,0,VALID,23.5478,VALID,357,VALID,0.355078,
2009-07-02, 02:39:04,VALID,1004.46,VALID,0,VALID,95.4373,VALID,0,VALID,23.5655,VALID,357,VALID,0.350781,
2009-07-02, 02:40:04,VALID,1004.45,VALID,0,VALID,95.4602,VALID,0,VALID,23.5868,VALID,357,VALID,0.165625,
2009-07-02, 02:41:04,VALID,1004.5,VALID,0,VALID,95.4602,VALID,0,VALID,23.5284,VALID,357,VALID,0.20625,
2009-07-02, 02:42:04,VALID,1004.48,VALID,0,VALID,95.4754,VALID,0,VALID,23.5089,VALID,357,VALID,0.247266,
2009-07-02, 02:43:04,VALID,1004.5,VALID,0,VALID,95.4449,VALID,0,VALID,23.5089,VALID,357,VALID,0,
2009-07-02, 02:44:04,VALID,1004.52,VALID,0,VALID,95.4526,VALID,0,VALID,23.4894,VALID,357,VALID,0,
2009-07-02, 02:45:04,VALID,1004.54,VALID,0,VALID,95.4297,VALID,0,VALID,23.4682,VALID,357,VALID,0,
2009-07-02, 02:46:04,VALID,1004.58,VALID,0,VALID,95.4526,VALID,0,VALID,23.4505,VALID,357,VALID,0.287109,
2009-07-02, 02:47:04,VALID,1004.59,VALID,0,VALID,95.4297,VALID,0,VALID,23.47,VALID,357,VALID,0.344531,
2009-07-02, 02:48:04,VALID,1004.61,VALID,0,VALID,95.4297,VALID,0,VALID,23.4311,VALID,357,VALID,0.415234,
2009-07-02, 02:49:04,VALID,1004.62,VALID,0,VALID,95.4373,VALID,0,VALID,23.3709,VALID,357,VALID,0.389844,
2009-07-02, 02:50:04,VALID,1004.59,VALID,0,VALID,95.4373,VALID,0,VALID,23.332,VALID,357,VALID,0.455078,
2009-07-02, 02:51:04,VALID,1004.61,VALID,0,VALID,95.422,VALID,0,VALID,23.3337,VALID,357,VALID,0.493359,
2009-07-02, 02:52:04,VALID,1004.56,VALID,0,VALID,95.4144,VALID,0,VALID,23.2948,VALID,357,VALID,0.392578,
2009-07-02, 02:53:04,VALID,1004.58,VALID,0,VALID,95.4373,VALID,0,VALID,23.3532,VALID,357,VALID,0.525391,
2009-07-02, 02:54:04,VALID,1004.6,VALID,0,VALID,95.4373,VALID,0,VALID,23.3921,VALID,357,VALID,0.485156,
2009-07-02, 02:55:04,VALID,1004.6,VALID,0,VALID,95.4297,VALID,0,VALID,23.3532,VALID,357,VALID,0.511719,
2009-07-02, 02:56:04,VALID,1004.62,VALID,0,VALID,95.4373,VALID,0,VALID,23.2948,VALID,357,VALID,0.382031,
2009-07-02, 02:57:04,VALID,1004.59,VALID,0,VALID,95.422,VALID,0,VALID,23.2541,VALID,357,VALID,0.307813,
2009-07-02, 02:58:04,VALID,1004.65,VALID,0,VALID,95.4297,VALID,0,VALID,23.4116,VALID,357,VALID,0.509375,
2009-07-02, 02:59:04,VALID,1004.63,VALID,0,VALID,95.4526,VALID,0,VALID,23.4505,VALID,357,VALID,0.364062,
2009-07-02, 03:00:04,VALID,1004.68,VALID,0,VALID,95.4678,VALID,0,VALID,23.3904,VALID,357,VALID,0.298438,
2009-07-02, 03:01:04,VALID,1004.66,VALID,0,VALID,95.4449,VALID,0,VALID,23.4487,VALID,357,VALID,0.532031,
2009-07-02, 03:02:04,VALID,1004.67,VALID,0,VALID,95.4526,VALID,0,VALID,23.5673,VALID,357,VALID,0.528125,
2009-07-02, 03:03:04,VALID,1004.68,VALID,0,VALID,95.4678,VALID,0,VALID,23.4894,VALID,358,VALID,0.332812,
2009-07-02, 03:04:04,VALID,1004.67,VALID,0,VALID,95.4602,VALID,0,VALID,23.585,VALID,358,VALID,0,
2009-07-02, 03:05:04,VALID,1004.66,VALID,0,VALID,95.4754,VALID,0,VALID,23.5868,VALID,358,VALID,0,
2009-07-02, 03:06:04,VALID,1004.66,VALID,0,VALID,95.4678,VALID,0,VALID,23.5673,VALID,358,VALID,0,
2009-07-02, 03:07:04,VALID,1004.65,VALID,0,VALID,95.4602,VALID,0,VALID,23.5655,VALID,358,VALID,0,
2009-07-02, 03:08:05,VALID,1004.65,VALID,0,VALID,95.4602,VALID,0,VALID,23.585,VALID,358,VALID,0.0800781,
2009-07-02, 03:09:05,VALID,1004.63,VALID,0,VALID,95.4449,VALID,0,VALID,23.6044,VALID,358,VALID,0,
2009-07-02, 03:10:05,VALID,1004.64,VALID,0,VALID,95.4602,VALID,0,VALID,23.6062,VALID,358,VALID,0.526563,
2009-07-02, 03:11:05,VALID,1004.64,VALID,0,VALID,95.4449,VALID,0,VALID,23.5071,VALID,358,VALID,0.280469,
2009-07-02, 03:12:05,VALID,1004.61,VALID,0,VALID,95.4526,VALID,0,VALID,23.3904,VALID,358,VALID,0.408203,
2009-07-02, 03:13:05,VALID,1004.63,VALID,0,VALID,95.4373,VALID,0,VALID,23.3143,VALID,358,VALID,0.357812,
2009-07-02, 03:14:05,VALID,1004.63,VALID,0,VALID,95.4373,VALID,0,VALID,23.2948,VALID,358,VALID,0.445703,
2009-07-02, 03:15:05,VALID,1004.62,VALID,0,VALID,95.4373,VALID,0,VALID,23.3514,VALID,358,VALID,0.532812,
2009-07-02, 03:16:05,VALID,1004.64,VALID,0,VALID,95.4449,VALID,0,VALID,23.3921,VALID,358,VALID,0.491797,
2009-07-02, 03:17:05,VALID,1004.67,VALID,0,VALID,95.4449,VALID,0,VALID,23.3337,VALID,358,VALID,0.369922,
2009-07-02, 03:18:05,VALID,1004.7,VALID,0,VALID,95.4068,VALID,0,VALID,23.3143,VALID,358,VALID,0.44375,
2009-07-02, 03:19:05,VALID,1004.69,VALID,0,VALID,95.4373,VALID,0,VALID,23.3143,VALID,358,VALID,0.424609,
2009-07-02, 03:20:05,VALID,1004.71,VALID,0,VALID,95.4449,VALID,0,VALID,23.3125,VALID,358,VALID,0.385156,
2009-07-02, 03:21:05,VALID,1004.7,VALID,0,VALID,95.422,VALID,0,VALID,23.3337,VALID,358,VALID,0.316797,
2009-07-02, 03:22:05,VALID,1004.74,VALID,0,VALID,95.4526,VALID,0,VALID,23.3709,VALID,358,VALID,0.300391,
2009-07-02, 03:23:05,VALID,1004.73,VALID,0,VALID,95.4373,VALID,0,VALID,23.4894,VALID,314,VALID,0.426172,
2009-07-02, 03:24:05,VALID,1004.74,VALID,0,VALID,95.4678,VALID,0,VALID,23.5478,VALID,353,VALID,0.248437,
2009-07-02, 03:25:05,VALID,1004.73,VALID,0,VALID,95.4602,VALID,0,VALID,23.5673,VALID,353,VALID,0.0628906,
2009-07-02, 03:26:05,VALID,1004.72,VALID,0,VALID,95.4449,VALID,0,VALID,23.5673,VALID,353,VALID,0,
2009-07-02, 03:27:05,VALID,1004.68,VALID,0,VALID,95.4526,VALID,0,VALID,23.5284,VALID,353,VALID,0,
2009-07-02, 03:28:05,VALID,1004.67,VALID,0,VALID,95.4602,VALID,0,VALID,23.5284,VALID,353,VALID,0,
2009-07-02, 03:29:05,VALID,1004.61,VALID,0,VALID,95.4526,VALID,0,VALID,23.5673,VALID,294,VALID,0.578906,
2009-07-02, 03:30:05,VALID,1004.6,VALID,0,VALID,95.4678,VALID,0,VALID,23.6452,VALID,294,VALID,0.402734,
2009-07-02, 03:31:05,VALID,1004.58,VALID,0,VALID,95.4602,VALID,0,VALID,23.6646,VALID,294,VALID,0.344531,
2009-07-02, 03:32:05,VALID,1004.59,VALID,0,VALID,95.4449,VALID,0,VALID,23.7035,VALID,294,VALID,0.0679687,
2009-07-02, 03:33:05,VALID,1004.6,VALID,0,VALID,95.4526,VALID,0,VALID,23.7035,VALID,294,VALID,0.144141,
2009-07-02, 03:34:05,VALID,1004.6,VALID,0,VALID,95.4373,VALID,0,VALID,23.6452,VALID,345,VALID,0.478906,
2009-07-02, 03:35:05,VALID,1004.59,VALID,0,VALID,95.4526,VALID,0,VALID,23.5673,VALID,345,VALID,0.466797,
2009-07-02, 03:36:05,VALID,1004.59,VALID,0,VALID,95.4297,VALID,0,VALID,23.5673,VALID,345,VALID,0.0410156,
2009-07-02, 03:37:05,VALID,1004.59,VALID,0,VALID,95.4449,VALID,0,VALID,23.5284,VALID,351,VALID,0.744922,
2009-07-02, 03:38:05,VALID,1004.6,VALID,0,VALID,95.4297,VALID,0,VALID,23.5284,VALID,355,VALID,0.464453,
2009-07-02, 03:39:05,VALID,1004.61,VALID,0,VALID,95.4297,VALID,0,VALID,23.6062,VALID,331,VALID,0.273438,
2009-07-02, 03:40:05,VALID,1004.61,VALID,0,VALID,95.4526,VALID,0,VALID,23.6275,VALID,331,VALID,0.00742187,
2009-07-02, 03:41:05,VALID,1004.62,VALID,0,VALID,95.4449,VALID,0,VALID,23.6841,VALID,359,VALID,1.04414,
2009-07-02, 03:42:05,VALID,1004.65,VALID,0,VALID,95.422,VALID,0,VALID,23.7425,VALID,11,VALID,0.820703,
2009-07-02, 03:43:05,VALID,1004.65,VALID,0,VALID,95.4373,VALID,0,VALID,23.723,VALID,349,VALID,0.776172,
2009-07-02, 03:44:05,VALID,1004.67,VALID,0,VALID,95.422,VALID,0,VALID,23.7407,VALID,347,VALID,0.467969,
2009-07-02, 03:45:05,VALID,1004.64,VALID,0,VALID,95.422,VALID,0,VALID,23.7601,VALID,356,VALID,0.364062,
2009-07-02, 03:46:05,VALID,1004.62,VALID,0,VALID,95.3915,VALID,0,VALID,23.8009,VALID,354,VALID,0.735547,
2009-07-02, 03:47:05,VALID,1004.61,VALID,0,VALID,95.3991,VALID,0,VALID,23.8593,VALID,351,VALID,0.580078,
2009-07-02, 03:48:05,VALID,1004.58,VALID,0,VALID,95.3991,VALID,0,VALID,23.8787,VALID,354,VALID,0.64375,
2009-07-02, 03:49:05,VALID,1004.6,VALID,0,VALID,95.4068,VALID,0,VALID,23.9159,VALID,354,VALID,0.464063,
2009-07-02, 03:50:05,VALID,1004.6,VALID,0,VALID,95.3839,VALID,0,VALID,23.9566,VALID,354,VALID,0.473437,
2009-07-02, 03:51:05,VALID,1004.62,VALID,0,VALID,95.3763,VALID,0,VALID,23.8964,VALID,354,VALID,0.496484,
2009-07-02, 03:52:05,VALID,1004.62,VALID,0,VALID,95.3839,VALID,0,VALID,23.8575,VALID,354,VALID,0.445313,
2009-07-02, 03:53:05,VALID,1004.67,VALID,0,VALID,95.3457,VALID,0,VALID,23.7601,VALID,354,VALID,0.322266,
2009-07-02, 03:54:05,VALID,1004.71,VALID,0,VALID,95.3229,VALID,0,VALID,23.7425,VALID,354,VALID,0.228906,
2009-07-02, 03:55:05,VALID,1004.69,VALID,0,VALID,95.2847,VALID,0,VALID,23.7035,VALID,354,VALID,0.410156,